www.pogodaiklimat.ru

Погода и климат >> Архив погоды >> Россия >> Хабаровский край >> Комсомольск-на-Амуре


ПОГОДА в Комсомольске-на-Амуре

АРХИВ ПОГОДЫ в Комсомольске-на-Амуре

Время (UTC), дата Ветер
(напр.,м/с)
 
Видим.   Явления Облачность Т
(С)
Тd
(С)
f
(%)
Тe
(С)
Тes
(С)
Комфортность P
(гПа)
Po
(гПа)
Тmin
(С)
Tmax
(С)
R
(мм)
R24
(мм)
S
(см)
03 20.03 С 6-11
{12}
50 км {снег, метель} 3/1 600 м
[Sc Ac trans]
-6.0 -16.6 43 -13 -10 холодно 1014.7 1012.1
06 20.03 С 4
{11}
50 км {снег, метель} 1/1 600 м
[Sc]
-4.1 -17.3 35 -9 -7 прохладно 1016.0 1013.4
09 20.03 С 3 50 км ясно -5.5 -18.9 34 -10 -10 прохладно 1018.4 1015.8 -3.9 0.4
12 20.03 СВ 1 50 км ясно -9.6 -16.0 60 -12 -12 прохладно 1020.2 1017.6
15 20.03 СВ 1 20 км ясно -17.6 -20.0 81 -20 -20 очень
холодно
1020.8 1018.1
18 20.03 С 2 20 км ясно -14.4 -21.0 57 -19 -19 холодно 1020.0 1017.3
21 20.03 СВ 1 50 км 3/0
[Ci fib]
-17.0 -21.6 67 -20 -20 очень
холодно
1019.3 1016.6 -18.3 26
00 21.03 СВ 2 50 км 8/0
[Ci fib]
-13.1 -19.4 59 -18 -13 очень
холодно
1018.2 1015.6
03 21.03 С 4 50 км 10/0
[Ci fib]
-5.6 -17.9 37 -11 -6 прохладно 1015.3 1012.7
06 21.03 С 4 20 км 10/0
[Cs]
-4.1 -18.2 32 -9 -7 прохладно 1012.8 1010.2
09 21.03 СВ 3
{11}
20 км 10/0
[As trans Cs]
-5.7 -17.7 38 -11 -11 прохладно 1012.1 1009.5 -4.1
12 21.03 С 3 20 км 10/0
[As trans Cs]
-7.0 -16.9 45 -12 -12 прохладно 1013.0 1010.4
15 21.03 С 3 20 км 10/0
[Ci fib]
-8.6 -18.7 44 -14 -14 прохладно 1012.5 1009.9
18 21.03 С 3 20 км 10/0
[Ci fib]
-9.9 -19.0 47 -16 -16 прохладно 1012.2 1009.5
21 21.03 С 4 20 км 10/6 600 м
[Sc Ci fib]
-11.2 -20.1 48 -18 -18 холодно 1012.6 1009.9 -11.3 26
00 22.03 СВ 3 20 км 9/0
[Cs]
-9.4 -19.6 43 -15 -11 холодно 1013.5 1010.9 -11.5
03 22.03 С 5 50 км 8/0
[Cs]
-6.0 -19.2 34 -13 -8 холодно 1012.7 1010.1
06 22.03 С 5
{12}
50 км 3/0
[Ci fib]
-5.1 -20.2 29 -11 -9 холодно 1012.4 1009.8
09 22.03 С 4 20 км 3/0
[Ci fib]
-6.8 -21.3 30 -13 -13 холодно 1012.8 1010.2 -5.0
12 22.03 С 1 20 км ясно -9.9 -21.1 39 -12 -12 прохладно 1013.9 1011.3
15 22.03 СВ 1 20 км ясно -11.9 -21.6 44 -14 -14 прохладно 1013.5 1010.8
18 22.03 З 1 20 км ясно -18.6 -23.1 68 -21 -21 очень
холодно
1013.1 1010.4
21 22.03 С 2 20 км ясно -15.9 -21.7 61 -21 -21 очень
холодно
1012.4 1009.7 -20.1 26
00 23.03 ЮЗ 1 50 км 3/0
[Ci fib]
-12.8 -20.7 52 -15 -9 холодно 1011.9 1009.2
03 23.03 Ю 2 20 км ясно -5.4 -18.4 35 -9 +1 прохладно 1009.4 1006.8
06 23.03 Ю 2 20 км ясно -4.6 -19.9 29 -8 -3 прохладно 1007.9 1005.3
09 23.03 Ю 2 20 км ясно -7.6 -17.9 43 -12 -12 холодно 1007.3 1004.7 -4.2
12 23.03 штиль 0 20 км ясно -13.1 -19.1 61 -13 -13 прохладно 1007.3 1004.7
15 23.03 З 1 20 км ясно -17.7 -21.7 71 -21 -21 очень
холодно
1006.6 1003.9
18 23.03 ЮВ 1 20 км ясно -18.0 -21.3 75 -21 -21 очень
холодно
1006.3 1003.6
21 23.03 З 1 20 км ясно -23.1 -25.9 78 -26 -26 очень
холодно
1006.1 1003.4 -23.1 26
00 24.03 Ю 1 10 км слаб. снег 10/3 600 м
[St Cs]
-13.3 -17.5 71 -16 -12 холодно 1006.2 1003.6 -23.1
03 24.03 Ю 4 50 км {снег} ясно -7.5 -14.5 57 -14 -7 очень
холодно
1005.4 1002.8
06 24.03 Ю 4 50 км {снег} ясно -3.8 -13.1 48 -9 -6 холодно 1003.8 1001.3
09 24.03 ЮВ 2 50 км 3/0
[Ci fib]
-5.2 -15.4 45 -9 -9 прохладно 1004.4 1001.9 -3.3 0.0
12 24.03 ЮЗ 1 50 км ясно -12.5 -17.3 67 -15 -15 холодно 1005.9 1003.3
15 24.03 ЮВ 1 50 км ясно -16.9 -19.2 82 -20 -20 очень
холодно
1006.1 1003.4
18 24.03 С 1 50 км ясно -15.4 -18.6 76 -18 -18 холодно 1006.0 1003.3
21 24.03 С 1 50 км 3/0
[Ci fib]
-15.6 -19.6 71 -18 -18 очень
холодно
1006.3 1003.7 -18.5 25
00 25.03 СВ 2 20 км ясно -9.4 -17.4 52 -14 -8 холодно 1007.0 1004.4
03 25.03 Ю 1 20 км 4/0
[Ci fib]
-1.9 -12.9 43 -3 +8 по сезону 1006.2 1003.7
06 25.03 ЮЗ 1 20 км 8/0
[Ci fib]
-0.1 -14.6 33 -1 +4 по сезону 1005.3 1002.8
09 25.03 штиль 0 20 км 6/0
[Cs]
-1.1 -11.7 44 -1 -1 по сезону 1005.5 1003.0 +1.3
12 25.03 С 1 20 км 8/0
[Cs]
-7.0 -10.3 77 -9 -9 по сезону 1006.4 1003.8
15 25.03 СВ 1 20 км 8/0
[Cs]
-7.0 -13.9 58 -9 -9 по сезону 1007.0 1004.4
18 25.03 С 2 20 км 5/0
[Ci fib]
-8.3 -15.8 55 -12 -12 по сезону 1006.3 1003.8
21 25.03 С 2 20 км 5/0
[Ci fib]
-10.3 -17.1 57 -15 -15 холодно 1006.2 1003.6 -12.1 24
00 26.03 С 4 20 км 5/0
[Cs]
-3.7 -17.1 35 -9 -5 по сезону 1005.8 1003.2
03 26.03 С 5-10
{12}
20 км 6/0
[Cs]
-0.1 -16.6 28 -5 -0 по сезону 1004.6 1002.1
06 26.03 С 7-12
{12}
50 км 8/0
[Ac trans Cs]
+0.1 -16.7 27 -6 -5 прохладно 1003.8 1001.3
09 26.03 С 2
{12}
50 км 4/0
[Ci fib]
-1.2 -17.7 27 -4 -4 по сезону 1004.6 1002.0 +0.6
12 26.03 С 3 50 км ясно -3.3 -18.7 29 -8 -8 по сезону 1005.4 1002.9
15 26.03 С 1 20 км ясно -5.9 -18.0 38 -8 -8 по сезону 1005.7 1003.1
18 26.03 СВ 2 50 км ясно -8.7 -16.3 54 -13 -13 прохладно 1006.1 1003.5
21 26.03 С 1 20 км 9/0
[Cs]
-9.8 -16.1 60 -12 -12 прохладно 1005.8 1003.2 -13.8 23

 

Местоположение метеостанции Комсомольск-на-Амуре (Хабаровский край, Россия): широта 50.53 долгота 137.00 высота над уровнем моря 21 м.

В архиве по умолчанию представлена погода в Комсомольске-на-Амуре за последнюю неделю. Архивные данные за месяц целиком и за предыдущие месяцы, начиная с января 2011 года, Вы можете получить, выбрав интересующий диапазон дат из раскрывающегося списка и нажав кнопку "Ввод!".


*Определитесь, кто Вы:
робот инопланетянин человек

Внимание! Время в таблицах - всемирное. Для получения местного времени необходимо прибавить поправку, которая равна 10 ч.

Смотрите также архив погоды в соседних городах и на ближайших метеорологических станциях:

Погода в Амурске (Хабаровский край, Россия) (28 км)
Погода в Горине (Хабаровский край, Россия) (76 км)
Погода в Нижнетамбовском (Хабаровский край, Россия) (89 км)
Погода в Сегжеме (Хабаровский край, Россия) (101 км)
Погода в Троицком (Хабаровский край, Россия) (124 км)
Погода в Солекуль (Хабаровский край, Россия) (167 км)
Погода в Хуларине (Хабаровский край, Россия) (172 км)
Погода в Циммермановка (Хабаровский край, Россия) (178 км)
Погода в Куре (Хабаровский край, Россия) (183 км)
Погода в Литовко (Хабаровский край, Россия) (199 км)

Пояснения к столбцам:

Ветер - указаны скорость ветра в м/с - средняя за 10 мин, порывы в срок и между сроками (в фигурных скобках) и направление, откуда дует ветер: С - северный, СВ - северо-восточный, В - восточный, ЮВ - юго-восточный, Ю - южный, ЮЗ - юго-западный, З - западный, СЗ - северо-западный.
Видимость - горизонтальная дальность видимости в метрах или километрах. При видимости от 1 до 10 км при отсутствии осадков обычно наблюдается дымка, при ухудшении видимости до 1 км и менее - туман. В сухую погоду видимость может ухудшаться дымом, пылью или мглою.
Явления - указаны атмосферные явления, наблюдавшиеся в срок или в последний час перед сроком; фигурными скобками обозначены явления, наблюдавшиеся между сроками (за 1-3 часа до срока); квадратными скобками обозначены град или гололедные отложения с указанием их диаметра в мм.
Облачность - указаны через наклонную черту общая и нижняя облачность в баллах и высота нижней границы облаков в метрах; квадратными скобками обозначены формы облаков: Ci - перистые, Cs - перисто-слоистые, Cc - перисто-кучевые, Ac - высококучевые, As - высокослоистые, Sc - слоисто-кучевые, Ns - слоисто-дождевые, Cu - кучевые, Cb - кучево-дождевые. Подробнее классификацию облаков см. в Атласе облаков (PDF).
T - Температура воздуха - температура, измеренная на высоте 2 м над землей.
Td - Температура точки росы - температура, при понижении до которой содержащийся в воздухе водяной пар достигнет насыщения.
f - Относительная влажность воздуха - влажноcть воздуха, измеренная на высоте 2 м над землей.
Te - Эффективная температура - температура, которую ощущает одетый по сезону человек в тени. Характеристика душности погоды. При расчете учитывается влияние влажности воздуха и скорости ветра на теплоощущения человека.
Tes - Эффективная температура на солнце - температура, которую ощущает человек, с поправкой на солнечный нагрев. Характеристика знойности погоды. Зависит от высоты солнца над горизонтом, облачности и скорости ветра. Ночью, в пасмурную погоду, а также при ветре 12 м/с и более поправка равна нулю.
P - Атмосферное давление - приведенное к уровню моря атмосферное давление.
Po - Атмосферное давление - измеренное на уровне метеостанции атмосферное давление.
Tmin - Минимальная температура - минимум температуры воздуха на высоте 2 м над землей.
Tmax - Максимальная температура - максимум температуры воздуха на высоте 2 м над землей.
R - Количество осадков - Количество выпавших осадков за период времени, мм. При наведении курсора мыши на число - период времени, за который выпало указанное количество осадков.
R24 - Количество осадков - Количество выпавших осадков за 24 часа, мм.
S - Снежный покров - Высота снежного покрова, см. При наведении курсора мыши на число - состояние снежного покрова и степень покрытия местности в баллах.